Weather in Montgomery

United States     32°22′09″N   86°15′41″W
temp.,
°C
wind,
m/s
gust,
m/s
humid.,
%
clouds,
%
prec.,
mm/h
press.,
hPa
HPBL,
m
23 may, mon
mon2301:00+20e31096100 1.3 1018335
04:00+20ese71596100 4.8 1014825
07:00+20ssw71297100 6.3 1015752
10:00+22wsw51086100 0.1 1018756
13:00+27wsw3563100 1.0 10171409
16:00+25wsw4578100 2.5 1016629
19:00+24wsw3577100 3.1 1017251
22:00+21nw1186100 0.1 101712
24 may, tue
tue2401:00+21sw2384100 0.1 101661
04:00+21sse1185100 0.0 101619
07:00+21n1184100 0.0 101722
10:00+23e2273100 0.0 1018296
13:00+22sse2585100 0.4 1018237
16:00+23e2487100 0.6 1016169
19:00+23e2686100 0.8 1015191
22:00+21ese4990100 0.2 1016184
25 may, wed
wed2501:00+20se399493 0.2 1016219
04:00+19ese3793100 0.0 1016195
07:00+20ese388998 0.0 1017255
10:00+28se4655100 0.0 10171099
13:00+31sse5846100 0.1 10162029
16:00+26ssw797483 0.8 1015662
19:00+20ese41084100 2.7 1016257
22:00+20se2488100 0.0 1017106
26 may, thu
thu2601:00+20ese379099 0.1 1017195
04:00+19ese3109215 0.1 1016302
07:00+20se4129338 0.5 1016438
10:00+25sse61271100 0.1 10161288
13:00+22sse41392100 5.0 1014759
16:00+19wnw3794100 8.8 1014342
19:00+18sse31198100 14.9 1012392
22:00+20s81694100 1.4 1012605
27 may, fri
fri2701:00+20s499766 2.2 1012406
04:00+20ssw369634 0.0 1011293
07:00+20ssw27940 0.0 1012216
10:00+24sw59730 0.8 1012881
13:00+29wsw7104210 1.1 10112564
16:00+29w57380 0.0 10092330
19:00+24nw4858100 0.0 1010390
22:00+22w246313 0.0 1011112